Tracking 19832 objects as of 25-Aug-2019
HD Live streaming from Space Station
objects crossing your sky now

CATSAT-1

Track CATSAT-1 now!
10-day predictions


NORAD ID: 44033
Int'l Code: 1998-067PZ
Perigee: 399.2 km
Apogee: 405.9 km
Inclination: 51.6 °
Period: 92.5 minutes
Semi major axis: 6773 km
RCS: Unknown
Launch date: November 20, 1998
Source: United States (US)
Launch site: TYURATAM MISSILE AND SPACE COMPLEX (TTMTR)
aabbcc
Your satellite tracking list
Your tracking list is empty




NASA's NSSDC Master Catalog

Two Line Element Set (TLE):
1 44033U 98067PZ  19236.88129926 +.00006383 +00000-0 +92268-4 0  9991
2 44033 051.6405 014.8098 0004952 044.2298 315.9089 15.57337745031956
Source of the keplerian elements: AFSPC